Theta_e
293 287 283 286 290 293 295 296 294 298 302 301 300 300 303 304 302 307 312 313 315 316 319 322 321 317 318 320 320 321 321 322 323 321 319 320 321 318 318 318 319 317 316 313
288 283 288 291 291 292 291 291 294 297 301 300 300 299 303 304 303 305 310 313 315 316 318 320 321 317 318 319 320 320 322 322 323 323 322 321 316 314 313 312 312 313 313 311
284 286 291 290 289 289 290 289 294 294 298 300 298 297 300 302 302 304 309 314 316 316 316 318 319 317 318 318 319 320 322 323 324 323 320 313 311 309 308 308 305 307 310 310
287 290 289 288 289 291 287 296 297 296 294 289 298 286 295 300 299 301 305 309 313 316 317 318 318 317 317 319 320 321 322 323 324 323 322 319 320 315 309 306 304 305 307 306
283 286 287 286 288 293 289 298 297 297 295 293 294 290 293 300 299 300 303 307 313 316 317 318 318 319 319 320 320 321 322 323 324 323 323 320 320 319 305 304 304 303 303 303
287 294 291 288 292 294 297 297 295 296 294 286 292 291 291 295 299 302 302 306 311 315 317 319 320 320 320 320 320 321 322 322 324 324 323 320 320 310 304 304 304 301 300 300
287 287 291 296 292 295 294 293 283 282 283 283 292 291 293 297 302 303 304 305 308 314 316 317 318 319 319 319 320 321 321 322 324 324 323 321 320 312 309 306 306 300 299 297
281 279 287 293 294 291 291 293 284 279 280 283 289 287 292 302 304 302 304 307 308 310 314 315 317 319 320 320 320 321 321 322 323 323 323 321 317 313 311 307 306 303 302 300
284 281 289 293 296 297 293 289 294 285 282 284 288 293 298 298 299 302 301 302 306 308 310 312 315 318 320 320 320 322 322 322 323 323 323 320 316 315 311 307 305 304 302 300
288 281 285 289 295 295 295 296 287 286 280 277 281 284 288 291 292 299 298 300 302 304 309 311 313 316 319 321 321 322 323 323 324 324 323 319 317 316 312 308 306 305 302 298
292 288 283 288 285 287 290 288 289 290 286 280 279 283 285 285 288 287 292 298 301 303 304 308 310 314 317 318 320 321 323 323 322 323 323 319 318 315 313 310 308 305 301 299
292 287 282 283 286 289 289 290 291 287 283 283 282 281 286 286 288 288 290 293 295 297 298 302 306 308 310 314 316 319 321 321 321 323 320 317 316 313 311 310 307 302 299 298
292 286 279 282 285 286 285 288 292 291 288 283 283 283 288 287 287 288 290 292 294 295 297 299 301 301 304 305 307 310 312 316 314 315 315 313 311 310 310 308 303 300 298 296
294 287 284 280 284 287 284 286 288 288 285 285 286 287 287 288 287 289 291 291 293 295 296 298 298 299 300 301 304 305 306 308 307 308 310 309 308 308 307 303 300 298 296 294
290 283 284 286 287 287 288 286 286 286 289 286 289 289 289 291 291 289 291 292 293 294 295 296 298 299 299 300 300 301 302 303 304 303 304 304 303 304 301 298 296 294 294 294
290 283 284 279 286 286 284 288 289 289 290 289 290 290 291 294 298 293 291 291 292 293 294 294 295 297 299 299 299 300 301 301 302 303 302 301 300 299 297 295 293 292 291 291
287 285 281 275 282 283 279 283 288 290 292 291 287 292 297 296 295 290 291 290 290 290 291 292 293 294 297 298 299 298 299 298 299 299 297 296 295 293 292 292 290 290 290 289
286 284 281 273 278 275 282 285 287 289 285 288 292 291 289 290 292 291 291 291 290 291 291 292 293 293 294 296 298 298 297 297 297 296 296 293 292 292 290 290 290 289 287 287
290 286 273 271 270 281 282 283 283 284 282 284 284 285 287 290 291 291 290 292 291 291 292 292 293 293 294 295 297 296 294 293 293 293 293 291 291 289 288 288 288 286 286 285
289 288 278 270 269 270 281 284 286 286 278 284 285 285 285 288 285 287 288 290 290 291 290 290 289 290 291 291 293 294 292 290 291 292 292 290 290 289 289 288 286 284 286 285
274 279 277 276 269 276 285 285 285 277 280 282 284 284 285 284 285 287 288 288 288 287 286 287 286 286 287 287 287 289 289 291 290 287 287 288 288 289 289 287 284 285 284 284
273 269 276 271 269 271 285 285 282 285 285 284 284 285 285 284 285 285 287 285 284 283 283 283 282 283 284 283 284 287 288 289 287 287 287 287 287 286 286 286 284 284 285 284
273 279 274 277 278 285 286 285 287 287 287 285 285 286 285 284 284 285 285 284 282 281 281 280 279 280 281 280 280 282 286 285 284 286 286 286 286 286 286 286 285 284 285 284
279 281 277 276 278 282 285 286 286 286 286 286 286 286 285 284 284 284 284 282 281 279 278 277 277 276 276 276 277 278 280 281 283 285 286 286 286 285 285 285 285 285 285 284
276 279 274 277 279 279 283 284 285 286 285 285 285 284 285 284 284 283 282 280 279 277 275 273 272 272 272 272 273 274 275 278 280 279 281 284 286 286 284 283 284 284 282 286
277 276 275 274 279 281 283 284 285 285 285 285 285 284 283 283 284 279 277 275 274 273 272 271 270 270 270 270 271 272 273 275 279 278 278 279 283 283 283 283 283 287 287 288
Wind_Speed
8 11 16 25 19 19 14 16 24 14 12 20 30 20 16 10 6 8 11 15 16 18 15 15 12 12 14 15 16 16 14 12 10 7 8 6 7 4 3 4 7 6 5 6
5 21 23 16 14 20 25 18 18 7 14 18 20 27 20 15 12 11 15 16 19 14 15 17 17 14 17 18 18 16 16 14 12 9 8 5 4 2 3 3 4 5 6 6
20 10 17 16 18 17 23 17 17 9 11 10 4 13 17 15 13 9 15 20 18 20 20 18 19 18 17 19 20 18 18 16 15 12 6 4 5 3 2 2 2 4 6 6
14 15 12 14 17 17 14 14 14 15 15 11 13 12 22 20 13 12 14 17 16 18 17 18 18 18 20 20 18 19 18 17 15 13 13 12 12 9 4 5 3 4 6 6
8 12 18 15 20 18 15 15 13 11 13 6 13 9 16 17 27 22 14 15 18 20 21 21 22 23 20 18 18 17 17 16 16 16 16 12 12 8 3 4 7 5 5 6
8 2 14 12 11 25 15 15 5 9 10 9 13 11 11 21 20 23 10 14 19 19 20 21 23 19 17 15 16 16 18 19 18 17 17 18 16 10 7 6 7 5 4 4
6 13 6 12 17 15 19 14 4 6 6 6 13 11 17 6 17 17 22 17 18 19 20 20 19 19 20 19 18 17 19 20 19 20 18 18 16 14 13 11 9 9 6 4
9 8 15 7 11 14 23 13 6 7 7 3 5 11 13 13 18 8 12 19 19 20 20 20 20 22 23 22 21 21 21 21 21 19 19 16 14 10 9 10 8 8 8 7
6 1 4 1 2 4 10 6 4 6 3 4 5 2 7 7 11 13 9 10 17 19 18 19 20 22 22 20 22 24 22 21 20 20 16 15 13 13 12 11 8 8 7 6
3 5 4 6 5 3 2 6 5 2 6 4 2 3 6 5 8 7 7 10 12 11 17 18 18 20 18 19 20 19 19 21 17 18 17 14 14 14 11 11 13 12 9 8
4 2 2 1 1 4 4 5 3 5 1 4 3 2 4 7 6 9 10 8 8 12 11 11 11 14 15 14 15 17 17 19 17 17 15 15 14 13 13 13 12 11 10 11
6 3 4 3 1 4 3 2 4 6 6 2 1 1 6 6 7 7 8 9 3 3 1 4 8 8 9 12 12 14 14 14 13 14 12 14 13 13 13 11 11 11 11 10
5 3 3 2 3 3 1 3 2 4 2 4 4 4 5 6 8 8 8 8 7 8 9 6 5 3 4 4 6 7 8 9 8 11 13 12 12 12 13 12 11 10 10 11
3 2 2 2 4 2 3 4 1 2 2 5 2 4 7 9 8 9 8 7 7 7 8 7 8 6 5 3 5 6 6 7 8 9 10 11 12 12 10 10 10 10 10 11
4 3 3 4 3 2 2 4 6 3 2 2 3 4 1 3 8 6 6 7 8 8 7 6 3 2 3 2 2 3 4 5 5 7 8 8 8 9 9 10 9 8 10 9
4 1 2 4 4 5 3 4 6 5 2 4 3 1 3 4 4 8 8 8 8 8 7 5 4 3 2 3 4 4 4 5 6 8 8 8 9 9 10 9 10 10 8 8
4 3 3 3 3 4 5 3 1 2 2 0 2 2 4 5 8 8 8 9 9 9 9 8 7 6 5 5 5 6 6 4 5 5 5 6 6 7 6 7 8 9 10 8
4 3 3 1 4 4 3 3 1 4 6 6 4 4 6 7 5 7 9 8 7 7 8 8 6 8 7 4 6 4 5 6 6 6 6 7 7 7 7 8 8 6 5 8
5 2 3 3 2 1 3 5 3 2 3 4 3 4 2 3 4 4 6 6 7 7 6 6 6 6 7 8 6 4 5 6 6 7 7 6 7 7 8 9 8 5 6 5
3 4 2 3 4 3 1 1 2 2 4 4 3 5 6 5 4 3 10 6 5 6 8 10 10 7 5 7 8 5 6 6 9 7 6 6 7 7 9 8 8 5 5 5
4 4 3 3 2 4 3 4 1 6 1 2 2 3 5 4 2 4 6 5 5 4 6 7 9 8 7 7 6 6 5 9 4 4 5 7 7 8 8 7 4 6 5 6
1 3 2 3 5 3 5 5 5 1 1 1 1 2 2 1 3 4 5 6 7 8 8 7 7 7 7 8 7 7 7 4 6 6 6 6 6 5 5 7 5 6 7 7
2 4 3 5 5 2 4 3 2 1 2 1 0 1 1 3 3 6 6 7 6 7 6 6 5 7 7 8 7 8 7 5 3 5 6 6 8 6 6 7 7 6 6 7
2 1 1 5 4 2 1 5 2 2 2 2 3 3 1 3 4 4 4 5 6 6 6 6 6 6 7 9 8 6 9 9 4 5 7 8 8 9 7 5 6 6 7 6
4 2 2 5 6 3 4 2 2 4 2 3 4 3 3 3 4 3 3 3 3 3 4 4 5 5 7 7 7 7 8 8 4 1 0 3 5 8 7 5 6 5 2 6
4 6 5 6 5 2 4 3 5 5 5 6 4 3 1 2 4 1 2 1 1 1 2 3 5 4 6 6 7 7 8 7 4 2 3 2 4 5 7 7 6 7 6 7
Wind_Direction
187 209 218 220 220 237 279 241 216 213 183 201 216 239 260 258 226 208 195 189 194 203 200 196 183 178 177 183 178 180 175 179 169 167 165 172 181 165 166 179 167 165 159 153
203 217 217 228 230 228 252 271 214 170 190 194 212 228 243 246 245 201 198 201 204 189 189 194 195 184 185 183 185 180 184 178 183 179 178 170 145 144 142 172 158 172 168 168
208 216 210 216 231 225 248 255 210 154 186 201 126 233 240 245 238 223 207 205 203 190 188 191 193 191 187 188 187 185 187 182 184 179 137 92 77 73 128 138 179 194 177 174
221 219 195 212 238 203 251 246 199 173 158 204 192 240 228 235 242 225 205 209 198 192 195 191 191 191 195 194 187 187 186 183 183 170 174 176 189 184 187 151 163 179 184 183
211 193 198 222 223 201 241 219 216 179 177 134 194 226 243 211 224 228 209 203 195 192 190 191 194 198 196 189 190 186 185 184 183 180 184 183 190 192 134 133 162 180 190 185
218 86 200 226 237 206 231 166 162 190 191 220 202 213 214 217 218 219 201 196 196 195 197 198 199 191 189 190 189 184 184 190 187 186 187 189 193 170 151 162 176 179 187 188
177 215 250 233 200 190 221 189 146 189 185 216 170 212 240 226 216 213 212 199 197 198 198 198 192 191 195 192 187 186 187 193 190 192 192 192 192 179 180 176 182 173 173 187
201 215 192 218 185 183 206 183 162 172 183 154 134 234 244 226 256 253 237 207 196 197 199 199 191 192 197 194 189 189 191 193 193 195 196 194 185 184 185 183 178 185 189 188
169 141 275 65 47 150 156 205 126 89 9 97 212 299 286 252 238 229 235 204 207 197 195 196 198 198 197 193 196 195 192 196 195 195 191 192 185 183 186 178 171 180 182 171
243 102 13 347 51 2 173 119 162 118 166 188 269 283 253 333 319 262 229 207 200 196 203 201 198 199 197 197 197 196 194 196 193 192 192 188 185 184 177 174 181 182 175 162
329 41 50 219 360 163 149 154 80 86 149 199 143 292 265 284 304 304 292 223 209 199 191 203 208 199 195 191 192 196 197 194 190 189 187 182 184 185 180 181 180 180 166 170
3 68 73 66 348 353 345 161 140 193 187 186 111 301 330 350 340 334 360 345 47 58 67 195 184 171 179 180 182 189 192 193 187 184 174 178 175 178 180 181 173 161 169 170
359 32 94 52 30 36 131 311 76 93 72 183 150 158 347 13 4 354 24 11 27 34 46 30 50 118 126 120 132 150 163 178 163 166 169 170 176 179 180 170 162 160 160 167
350 35 27 102 114 136 173 161 161 89 144 144 196 161 4 6 12 9 16 35 21 54 50 29 27 25 34 85 138 147 151 159 154 159 166 173 174 176 170 154 154 160 164 164
28 48 43 46 54 50 20 164 170 147 74 169 150 177 224 356 11 3 2 25 39 36 26 45 23 314 69 31 49 97 130 151 151 150 156 167 150 150 147 144 151 154 162 170
332 62 21 18 30 56 61 27 178 198 194 269 316 60 180 160 38 10 25 16 29 34 11 350 336 314 311 251 224 204 189 173 158 167 176 160 160 156 160 154 158 154 149 155
359 6 21 313 344 33 38 2 219 109 20 170 254 358 309 324 43 20 15 38 26 13 12 1 342 315 281 251 225 219 204 160 168 163 146 143 146 149 154 141 147 153 162 161
357 8 36 251 5 53 282 19 18 122 46 8 355 8 27 27 69 75 26 8 7 4 356 353 356 348 325 269 226 201 178 182 178 179 180 164 161 157 152 148 158 144 147 166
12 350 10 85 29 283 45 10 17 47 35 4 13 8 328 221 192 77 48 359 340 348 343 327 339 329 322 324 283 207 188 192 196 194 177 178 162 155 159 164 163 154 143 157
4 39 80 37 92 128 329 55 3 318 36 11 22 13 350 8 71 348 353 358 12 345 347 340 333 324 340 353 330 238 220 202 213 200 200 160 158 168 174 169 166 142 144 150
352 3 26 352 67 307 314 313 324 71 226 16 16 28 25 66 165 283 327 352 355 356 351 343 334 330 325 333 329 273 228 231 195 170 147 156 171 173 181 157 124 136 135 138
148 95 342 28 38 340 4 345 76 205 32 60 31 6 31 319 306 315 324 349 356 350 346 349 340 331 330 345 341 308 261 211 176 172 169 166 165 152 140 152 138 140 151 153
331 176 210 164 215 319 335 27 354 153 160 190 358 276 299 316 331 324 327 346 349 351 339 332 338 334 346 357 355 326 323 302 188 157 173 178 155 147 146 152 154 145 154 158
295 39 193 40 290 250 322 313 263 328 294 289 260 274 246 293 318 307 324 341 347 352 346 335 341 2 346 346 343 332 326 322 262 207 181 165 179 152 153 143 161 159 171 168
219 35 198 271 283 320 14 163 14 0 7 349 321 273 273 303 322 323 332 351 352 337 335 341 354 346 337 330 333 331 331 333 300 294 74 170 170 157 151 133 159 166 167 176
193 190 161 224 245 172 272 308 325 319 329 333 327 348 39 269 296 308 314 268 263 320 342 350 345 341 330 330 329 333 330 330 298 158 138 163 148 143 144 133 105 90 133 172